Showing default

LEMUR 2 AMANDA-SVANTE, 48269

Orbit data source: Space-Track

LEMUR 2 AMANDA-SVANTE, 48269 is a payload satellite owned by Spire (US) in SSO that was launched on Thu, 29 Apr 2021 UTC via a VEGA launch vehicle from the French Guiana (FRGUI). Payload-class satellites include a variety of spacecraft equipped with specific instruments for various scientific and technological missions. These include communications satellites like Starlink; space stations such as the ISS; scientific satellites like the Hubble; Earth observation satellites from companies like Planet Labs, Umbra, and HawkEye 360; GPS; miniature CubeSats for education and research; and military/defense satellites.

Loading next visibility...
Identifier
48269, 2021-034B
Orbit
SSO
Country
Flag of USUS
Related business
Manufacturer
Spire/Glasgow
Mission
Operational Commercial Com/MetRO
Bus & Motor
CUBESAT 3U, Unknown motor
Mass
4.6 kg wet, 4.6 kg dry
Launch date (UTC)
2021-04-29 (5 years ago)
Launch vehicle
VEGA
Launch site
French Guiana (FRGUI)
Object type
Payload
Rocket body
Debris
Shape & HBR
Box + 2 Pan, 1.0 m
Radar Cross Section
0.054 m², Medium (>0.1 m² and < 1m²)

Expand to show TLE details & history
Last TLE update: 2 days ago

TLE from 2 days ago
0 LEMUR 2 AMANDA-SVANTE
1 48269U 21034B   26171.16173717  .00027226  00000-0  81656-3 0  9997
2 48269  97.5757 249.5260 0002675 198.4440 161.6706 15.34444227281519
Epoch: 2026-06-20T03:52Z
TLE epoch observation values (Epoch: 2026-06-20T03:52:54.091Z)
Latitude
-0.00001°
Longitude
-77.0797°
Altitude
467.414 km
Speed
7.632 km/s
True Right ascension
16h 38m 06s
True Declination
0° 00' 00"
Sunlit
Object was in full shadow at epoch
Visualization orbit readout
Latitude
Unknown
Longitude
Unknown
Altitude
Unknown
Speed
Unknown
Apparent Right ascension
Unknown
Apparent Declination
Unknown
Sunlit
N/A
Visualization observer readout
Local Sidereal Time
21:42:36
Azimuth
Unknown
Elevation
Unknown
Doppler factor
Unknown
Orbital elements
Apogee altitude
461.355 km
Perigee altitude
457.697 km
Semi-major axis
6,837.663 km
Eccentricity
0.00027
Inclination
97.5757°
RAAN
249.526°
Arg. of periapsis
198.444°
True anomaly
161.68024°
Mean anomaly
161.6706°
Eccentric anomaly
161.67542°
Mean motion
3.83868 °/min
Orbital period
93.78 mins
BSTAR
0.00081656
Loading maneuver chart data...
Computing Atmospheric mass density...
Loading historical data...
Loading historical data...
Loading historical data...
Loading historical data...
Loading historical data...
Loading historical data...
Loading historical data...
Other satellites on launch #34 in the year 2021 (2021-04-29 UTC)

Documentation

Showing up to 5 results
|